Calera, OK

7:34 PM CST on December 05, 2016 (GMT -0600)
Eaker

Weather History for KDUA - January, 2014

Change the Weather History Date:

Thursday, January 16, 2014

  Actual Average (KMLC) Record (KMLC)
Temperature  
Mean Temperature 52 °F -  
Max Temperature 66 °F 49 °F 70 °F (2012)
Min Temperature 37 °F 30 °F 6 °F (1982)
Degree Days  
Heating Degree Days 14    
Growing Degree Days 2 (Base 50)    
Moisture  
Dew Point 24 °F    
Average Humidity 41    
Maximum Humidity 75    
Minimum Humidity 15    
Precipitation  
Precipitation 0.00 in - - ()
Sea Level Pressure  
Sea Level Pressure 30.06 in    
Wind  
Wind Speed 10 mph (WNW)    
Max Wind Speed 21 mph    
Max Gust Speed 37 mph    
Visibility 10 miles    
Events      
Averages and records for this station are not official NWS values.
T = Trace of Precipitation, MM = Missing Value Source: NWS Daily Summary

Daily Weather History Graph

Daily Weather History Graph

Search for Another Location

Airport or City:

Trip Planner

Search our weather history database for the weather conditions in past years. The results will help you decide how hot, cold, wet, or windy it might be!

Date:

Astronomy

Jan. 16, 2014 Rise Set
Actual Time 7:30 AM CST 5:40 PM CST
Civil Twilight 7:03 AM CST 6:07 PM CST
Nautical Twilight 6:32 AM CST 6:38 PM CST
Astronomical Twilight 6:02 AM CST 7:08 PM CST
Moon 6:28 PM CST (1/16) 7:28 AM CST (1/16)
Length of Visible Light 11h 04m
Length of Day
10h 10m
Full, 100% of the Moon is Illuminated
Jan 16
Full
Jan 23
Last Quarter
Jan 30
New
Feb 6
First Quarter
Feb 14
Full

Hourly Weather History & Observations

Time (CST) Temp. Windchill Dew Point Humidity Pressure Visibility Wind Dir Wind Speed Gust Speed Precip Events Conditions
12:15 AM 41.0 °F 35.2 °F 28.4 °F 61% 30.05 in 10.0 mi SSW 9.2 mph - N/A   Clear
12:35 AM 41.0 °F 36.4 °F 28.4 °F 61% 30.04 in 10.0 mi South 6.9 mph - N/A   Clear
12:55 AM 39.2 °F 33.0 °F 28.4 °F 65% 30.03 in 10.0 mi SSW 9.2 mph - N/A   Clear
1:15 AM 41.0 °F 34.3 °F 28.4 °F 61% 30.02 in 10.0 mi SSW 11.5 mph - N/A   Clear
1:35 AM 42.8 °F 36.6 °F 28.4 °F 57% 30.02 in 10.0 mi SSW 11.5 mph - N/A   Clear
1:55 AM 42.8 °F 37.0 °F 28.4 °F 57% 30.01 in 10.0 mi SSW 10.4 mph - N/A   Clear
2:15 AM 41.0 °F 35.8 °F 28.4 °F 61% 30.02 in 10.0 mi SSW 8.1 mph - N/A   Clear
2:35 AM 41.0 °F 36.4 °F 28.4 °F 61% 30.02 in 10.0 mi SW 6.9 mph - N/A   Clear
2:55 AM 41.0 °F 35.2 °F 28.4 °F 61% 30.01 in 10.0 mi SSW 9.2 mph - N/A   Clear
3:15 AM 41.0 °F 36.4 °F 28.4 °F 61% 30.01 in 10.0 mi SSW 6.9 mph - N/A   Clear
3:35 AM 37.4 °F 30.8 °F 28.4 °F 70% 29.99 in 10.0 mi SW 9.2 mph - N/A   Clear
3:55 AM 39.2 °F 33.0 °F 30.2 °F 70% 29.99 in 10.0 mi SW 9.2 mph - N/A   Clear
4:15 AM 39.2 °F 34.2 °F 30.2 °F 70% 29.99 in 10.0 mi SW 6.9 mph - N/A   Clear
4:35 AM 37.4 °F 31.4 °F 30.2 °F 75% 29.98 in 10.0 mi SW 8.1 mph - N/A   Clear
4:55 AM 37.4 °F 33.8 °F 30.2 °F 75% 29.98 in 10.0 mi SSW 4.6 mph - N/A   Clear
5:15 AM 37.4 °F 32.1 °F 30.2 °F 75% 29.97 in 10.0 mi SSW 6.9 mph - N/A   Clear
5:35 AM 37.4 °F 31.4 °F 30.2 °F 75% 29.97 in 10.0 mi SW 8.1 mph - N/A   Clear
5:55 AM 37.4 °F 32.8 °F 30.2 °F 75% 29.98 in 10.0 mi WSW 5.8 mph - N/A   Clear
6:15 AM 41.0 °F 35.8 °F 30.2 °F 65% 29.99 in 10.0 mi WSW 8.1 mph - N/A   Clear
6:35 AM 42.8 °F 38.6 °F 30.2 °F 61% 29.99 in 10.0 mi WSW 6.9 mph - N/A   Clear
6:55 AM 42.8 °F 37.0 °F 30.2 °F 61% 29.99 in 10.0 mi WSW 10.4 mph - N/A   Clear
7:15 AM 42.8 °F 38.6 °F 32.0 °F 66% 30.00 in 10.0 mi West 6.9 mph - N/A   Clear
7:35 AM 42.8 °F 38.0 °F 32.0 °F 66% 30.00 in 10.0 mi West 8.1 mph - N/A   Clear
7:55 AM 42.8 °F 38.0 °F 32.0 °F 66% 29.99 in 10.0 mi WSW 8.1 mph - N/A   Clear
8:15 AM 42.8 °F 38.0 °F 32.0 °F 66% 30.00 in 10.0 mi West 8.1 mph - N/A   Clear
8:35 AM 42.8 °F 38.0 °F 32.0 °F 66% 30.02 in 10.0 mi West 8.1 mph - N/A   Clear
8:55 AM 44.6 °F 39.7 °F 32.0 °F 61% 30.03 in 10.0 mi West 9.2 mph - N/A   Clear
9:15 AM 46.4 °F 42.9 °F 30.2 °F 53% 30.05 in 10.0 mi WNW 6.9 mph - N/A   Clear
9:35 AM 48.2 °F - 30.2 °F 50% 30.06 in 10.0 mi WNW 6.9 mph - N/A   Clear
9:55 AM 50.0 °F - 30.2 °F 47% 30.07 in 10.0 mi NW 9.2 mph - N/A   Clear
10:15 AM 51.8 °F - 30.2 °F 44% 30.07 in 10.0 mi NNW 9.2 mph - N/A   Clear
10:35 AM 53.6 °F - 32.0 °F 44% 30.08 in 10.0 mi NNW 8.1 mph - N/A   Clear
10:55 AM 55.4 °F - 32.0 °F 41% 30.09 in 10.0 mi NNW 11.5 mph - N/A   Clear
11:15 AM 59.0 °F - 32.0 °F 36% 30.09 in 10.0 mi NNW 11.5 mph - N/A   Clear
11:35 AM 59.0 °F - 32.0 °F 36% 30.09 in 10.0 mi NNW 12.7 mph 18.4 mph N/A   Clear
11:55 AM 62.6 °F - 33.8 °F 34% 30.07 in 10.0 mi NNW 15.0 mph 19.6 mph N/A   Clear
12:15 PM 62.6 °F - 32.0 °F 32% 30.07 in 10.0 mi NNW 16.1 mph 21.9 mph N/A   Clear
12:35 PM 64.4 °F - 32.0 °F 30% 30.07 in 10.0 mi NNW 11.5 mph 19.6 mph N/A   Clear
12:55 PM 64.4 °F - 32.0 °F 30% 30.06 in 10.0 mi NW 15.0 mph 21.9 mph N/A   Clear
1:15 PM 64.4 °F - 30.2 °F 28% 30.06 in 10.0 mi WNW 20.7 mph 25.3 mph N/A   Clear
1:35 PM 64.4 °F - 30.2 °F 28% 30.06 in 10.0 mi NNW 18.4 mph 21.9 mph N/A   Clear
1:55 PM 66.2 °F - 28.4 °F 24% 30.05 in 10.0 mi NNW 18.4 mph 23.0 mph N/A   Clear
2:35 PM 66.2 °F - 26.6 °F 23% 30.04 in 10.0 mi NNW 16.1 mph 23.0 mph N/A   Clear
2:55 PM 66.2 °F - 19.4 °F 17% 30.04 in 10.0 mi NW 19.6 mph 36.8 mph N/A   Clear
3:15 PM 66.2 °F - 21.2 °F 18% 30.05 in 10.0 mi NW 20.7 mph 25.3 mph N/A   Clear
3:35 PM 64.4 °F - 19.4 °F 18% 30.05 in 10.0 mi NW 17.3 mph 26.5 mph N/A   Clear
3:55 PM 64.4 °F - 15.8 °F 15% 30.06 in 10.0 mi NW 20.7 mph 27.6 mph N/A   Clear
4:15 PM 62.6 °F - 14.0 °F 15% 30.07 in 10.0 mi NW 20.7 mph 32.2 mph N/A   Clear
4:35 PM 62.6 °F - 14.0 °F 15% 30.06 in 10.0 mi NNW 19.6 mph 27.6 mph N/A   Clear
4:55 PM 62.6 °F - 15.8 °F 16% 30.07 in 10.0 mi NW 12.7 mph - N/A   Clear
5:15 PM 60.8 °F - 15.8 °F 17% 30.07 in 10.0 mi NW 10.4 mph - N/A   Clear
5:35 PM 59.0 °F - 15.8 °F 19% 30.08 in 10.0 mi NW 10.4 mph 18.4 mph N/A   Clear
5:55 PM 57.2 °F - 15.8 °F 20% 30.08 in 10.0 mi NW 9.2 mph 18.4 mph N/A   Clear
6:15 PM 55.4 °F - 17.6 °F 23% 30.08 in 10.0 mi NW 10.4 mph - N/A   Clear
6:35 PM 55.4 °F - 17.6 °F 23% 30.09 in 10.0 mi WNW 11.5 mph 17.3 mph N/A   Clear
6:55 PM 55.4 °F - 14.0 °F 20% 30.10 in 10.0 mi NW 10.4 mph - N/A   Clear
7:15 PM 53.6 °F - 12.2 °F 19% 30.10 in 10.0 mi WNW 10.4 mph - N/A   Clear
7:35 PM 53.6 °F - 12.2 °F 19% 30.11 in 10.0 mi NW 10.4 mph - N/A   Clear
7:55 PM 53.6 °F - 12.2 °F 19% 30.12 in 10.0 mi NW 9.2 mph - N/A   Clear
8:15 PM 51.8 °F - 12.2 °F 21% 30.12 in 10.0 mi WNW 9.2 mph - N/A   Clear
8:35 PM 51.8 °F - 12.2 °F 21% 30.13 in 10.0 mi NW 10.4 mph 16.1 mph N/A   Clear
8:55 PM 51.8 °F - 12.2 °F 21% 30.14 in 10.0 mi WNW 10.4 mph - N/A   Clear
9:15 PM 50.0 °F - 14.0 °F 24% 30.14 in 10.0 mi West 5.8 mph - N/A   Clear
9:35 PM 48.2 °F - 14.0 °F 25% 30.15 in 10.0 mi WNW 8.1 mph - N/A   Clear
9:55 PM 50.0 °F - 14.0 °F 24% 30.16 in 10.0 mi WNW 9.2 mph - N/A   Clear
10:15 PM 50.0 °F - 14.0 °F 24% 30.16 in 10.0 mi WNW 9.2 mph - N/A   Clear
10:35 PM 48.2 °F - 14.0 °F 25% 30.17 in 10.0 mi WNW 6.9 mph - N/A   Clear
10:55 PM 46.4 °F 41.9 °F 14.0 °F 27% 30.17 in 10.0 mi WNW 9.2 mph - N/A   Scattered Clouds
11:15 PM 48.2 °F - 14.0 °F 25% 30.16 in 10.0 mi WNW 9.2 mph - N/A   Scattered Clouds
11:35 PM 48.2 °F - 14.0 °F 25% 30.17 in 10.0 mi WNW 8.1 mph - N/A   Clear
11:55 PM 48.2 °F - 14.0 °F 25% 30.16 in 10.0 mi WNW 6.9 mph - N/A   Clear